owner,sensor,date,latitude,longitude,air_pressure(mBar),qcFlag 
WAVCIS,ioos:station:WAVCIS:CSI06:1,2013-02-01T00:00:00Z,28.8667,-90.4833,1026.69,11111222 
WAVCIS,ioos:station:WAVCIS:CSI06:1,2013-02-01T01:00:00Z,28.8667,-90.4833,1027.07,11111222 
WAVCIS,ioos:station:WAVCIS:CSI06:1,2013-02-01T02:00:00Z,28.8667,-90.4833,1027.62,11111222 
WAVCIS,ioos:station:WAVCIS:CSI06:1,2013-02-01T03:00:00Z,28.8667,-90.4833,1027.44,11111222 
WAVCIS,ioos:station:WAVCIS:CSI06:1,2013-02-01T04:00:00Z,28.8667,-90.4833,1027.76,11111222 
WAVCIS,ioos:station:WAVCIS:CSI06:1,2013-02-01T05:00:00Z,28.8667,-90.4833,1028.45,11111222 
WAVCIS,ioos:station:WAVCIS:CSI06:1,2013-02-01T06:00:00Z,28.8667,-90.4833,1028.2,11111222 
WAVCIS,ioos:station:WAVCIS:CSI06:1,2013-02-01T07:00:00Z,28.8667,-90.4833,1028.53,11111222 
WAVCIS,ioos:station:WAVCIS:CSI06:1,2013-02-01T08:00:00Z,28.8667,-90.4833,1028.13,11111222 
WAVCIS,ioos:station:WAVCIS:CSI06:1,2013-02-01T09:00:00Z,28.8667,-90.4833,1027.59,11111222 
WAVCIS,ioos:station:WAVCIS:CSI06:1,2013-02-01T10:00:00Z,28.8667,-90.4833,1027.5,11111222 
WAVCIS,ioos:station:WAVCIS:CSI06:1,2013-02-01T11:00:00Z,28.8667,-90.4833,1027.45,11111222 
WAVCIS,ioos:station:WAVCIS:CSI06:1,2013-02-01T12:00:00Z,28.8667,-90.4833,1028.17,11111222 
WAVCIS,ioos:station:WAVCIS:CSI06:1,2013-02-01T13:00:00Z,28.8667,-90.4833,1028.99,11111222 
WAVCIS,ioos:station:WAVCIS:CSI06:1,2013-02-01T14:00:00Z,28.8667,-90.4833,1029.15,11111222 
WAVCIS,ioos:station:WAVCIS:CSI06:1,2013-02-01T15:00:00Z,28.8667,-90.4833,1029.74,11111222 
WAVCIS,ioos:station:WAVCIS:CSI06:1,2013-02-01T16:00:00Z,28.8667,-90.4833,1030.26,11111222 
WAVCIS,ioos:station:WAVCIS:CSI06:1,2013-02-01T17:00:00Z,28.8667,-90.4833,1030.43,11111222 
WAVCIS,ioos:station:WAVCIS:CSI06:1,2013-02-01T18:00:00Z,28.8667,-90.4833,1029.99,11111222 
WAVCIS,ioos:station:WAVCIS:CSI06:1,2013-02-01T19:00:00Z,28.8667,-90.4833,1028.77,11111222 
WAVCIS,ioos:station:WAVCIS:CSI06:1,2013-02-01T20:00:00Z,28.8667,-90.4833,1028.31,11111222 
WAVCIS,ioos:station:WAVCIS:CSI06:1,2013-02-01T21:00:00Z,28.8667,-90.4833,1027.77,11111222 
WAVCIS,ioos:station:WAVCIS:CSI06:1,2013-02-01T22:00:00Z,28.8667,-90.4833,1027.55,11111222 
WAVCIS,ioos:station:WAVCIS:CSI06:1,2013-02-01T23:00:00Z,28.8667,-90.4833,1027.31,11111222 
WAVCIS,ioos:station:WAVCIS:CSI06:1,2013-02-02T00:00:00Z,28.8667,-90.4833,1027.36,11111222 
WAVCIS,ioos:station:WAVCIS:CSI06:1,2013-02-02T01:00:00Z,28.8667,-90.4833,1027.31,11111222 
WAVCIS,ioos:station:WAVCIS:CSI06:1,2013-02-02T02:00:00Z,28.8667,-90.4833,1027.84,11111222 
WAVCIS,ioos:station:WAVCIS:CSI06:1,2013-02-02T03:00:00Z,28.8667,-90.4833,1027.64,11111222 
WAVCIS,ioos:station:WAVCIS:CSI06:1,2013-02-02T04:00:00Z,28.8667,-90.4833,1027.54,11111222 
WAVCIS,ioos:station:WAVCIS:CSI06:1,2013-02-02T05:00:00Z,28.8667,-90.4833,1027.22,11111222 
WAVCIS,ioos:station:WAVCIS:CSI06:1,2013-02-02T06:00:00Z,28.8667,-90.4833,1026.54,11111222 
WAVCIS,ioos:station:WAVCIS:CSI06:1,2013-02-02T07:00:00Z,28.8667,-90.4833,1026.42,11111222 
WAVCIS,ioos:station:WAVCIS:CSI06:1,2013-02-02T08:00:00Z,28.8667,-90.4833,1026.19,11111222 
WAVCIS,ioos:station:WAVCIS:CSI06:1,2013-02-02T09:00:00Z,28.8667,-90.4833,1026.11,11111222 
WAVCIS,ioos:station:WAVCIS:CSI06:1,2013-02-02T10:00:00Z,28.8667,-90.4833,1025.93,11111222 
WAVCIS,ioos:station:WAVCIS:CSI06:1,2013-02-02T11:00:00Z,28.8667,-90.4833,1025.73,11111222 
WAVCIS,ioos:station:WAVCIS:CSI06:1,2013-02-02T12:00:00Z,28.8667,-90.4833,1025.79,11111222 
WAVCIS,ioos:station:WAVCIS:CSI06:1,2013-02-02T13:00:00Z,28.8667,-90.4833,1025.98,11111222 
WAVCIS,ioos:station:WAVCIS:CSI06:1,2013-02-02T14:00:00Z,28.8667,-90.4833,1026.47,11111222 
WAVCIS,ioos:station:WAVCIS:CSI06:1,2013-02-02T15:00:00Z,28.8667,-90.4833,1026.63,11111222 
WAVCIS,ioos:station:WAVCIS:CSI06:1,2013-02-02T16:00:00Z,28.8667,-90.4833,1026.51,11111222 
WAVCIS,ioos:station:WAVCIS:CSI06:1,2013-02-02T17:00:00Z,28.8667,-90.4833,1025.99,11111222 
WAVCIS,ioos:station:WAVCIS:CSI06:1,2013-02-02T18:00:00Z,28.8667,-90.4833,1025.15,11111222 
WAVCIS,ioos:station:WAVCIS:CSI06:1,2013-02-02T19:00:00Z,28.8667,-90.4833,1024.28,11111222 
WAVCIS,ioos:station:WAVCIS:CSI06:1,2013-02-02T20:00:00Z,28.8667,-90.4833,1023.72,11111222 
WAVCIS,ioos:station:WAVCIS:CSI06:1,2013-02-02T21:00:00Z,28.8667,-90.4833,1023.58,11111222 
WAVCIS,ioos:station:WAVCIS:CSI06:1,2013-02-02T22:00:00Z,28.8667,-90.4833,1023.47,11111222 
WAVCIS,ioos:station:WAVCIS:CSI06:1,2013-02-02T23:00:00Z,28.8667,-90.4833,1023.35,11111222 
WAVCIS,ioos:station:WAVCIS:CSI06:1,2013-02-03T00:00:00Z,28.8667,-90.4833,1023.24,11111222 
WAVCIS,ioos:station:WAVCIS:CSI06:1,2013-02-03T01:00:00Z,28.8667,-90.4833,1023.56,11111222 
WAVCIS,ioos:station:WAVCIS:CSI06:1,2013-02-03T02:00:00Z,28.8667,-90.4833,1024.05,11111222 
WAVCIS,ioos:station:WAVCIS:CSI06:1,2013-02-03T03:00:00Z,28.8667,-90.4833,1024.3,11111222 
WAVCIS,ioos:station:WAVCIS:CSI06:1,2013-02-03T04:00:00Z,28.8667,-90.4833,1024.42,11111222 
WAVCIS,ioos:station:WAVCIS:CSI06:1,2013-02-03T05:00:00Z,28.8667,-90.4833,1024.54,11111222 
WAVCIS,ioos:station:WAVCIS:CSI06:1,2013-02-03T06:00:00Z,28.8667,-90.4833,1024.36,11111222 
WAVCIS,ioos:station:WAVCIS:CSI06:1,2013-02-03T07:00:00Z,28.8667,-90.4833,1024.04,11111222 
WAVCIS,ioos:station:WAVCIS:CSI06:1,2013-02-03T08:00:00Z,28.8667,-90.4833,1023.61,11111222 
WAVCIS,ioos:station:WAVCIS:CSI06:1,2013-02-03T09:00:00Z,28.8667,-90.4833,1023.52,11111222 
WAVCIS,ioos:station:WAVCIS:CSI06:1,2013-02-03T10:00:00Z,28.8667,-90.4833,1023.6,11111222 
WAVCIS,ioos:station:WAVCIS:CSI06:1,2013-02-03T11:00:00Z,28.8667,-90.4833,1023.65,11111222 
WAVCIS,ioos:station:WAVCIS:CSI06:1,2013-02-03T12:00:00Z,28.8667,-90.4833,1024.24,11111222 
WAVCIS,ioos:station:WAVCIS:CSI06:1,2013-02-03T13:00:00Z,28.8667,-90.4833,1024.83,11111222 
WAVCIS,ioos:station:WAVCIS:CSI06:1,2013-02-03T14:00:00Z,28.8667,-90.4833,1025.29,11111222 
WAVCIS,ioos:station:WAVCIS:CSI06:1,2013-02-03T15:00:00Z,28.8667,-90.4833,1025.41,11111222 
WAVCIS,ioos:station:WAVCIS:CSI06:1,2013-02-03T16:00:00Z,28.8667,-90.4833,1025.69,11111222 
WAVCIS,ioos:station:WAVCIS:CSI06:1,2013-02-03T17:00:00Z,28.8667,-90.4833,1025.64,11111222 
WAVCIS,ioos:station:WAVCIS:CSI06:1,2013-02-03T18:00:00Z,28.8667,-90.4833,1025.21,11111222 
WAVCIS,ioos:station:WAVCIS:CSI06:1,2013-02-03T19:00:00Z,28.8667,-90.4833,1024.33,11111222 
WAVCIS,ioos:station:WAVCIS:CSI06:1,2013-02-03T20:00:00Z,28.8667,-90.4833,1023.68,11111222 
WAVCIS,ioos:station:WAVCIS:CSI06:1,2013-02-03T21:00:00Z,28.8667,-90.4833,1023.3,11111222 
WAVCIS,ioos:station:WAVCIS:CSI06:1,2013-02-03T22:00:00Z,28.8667,-90.4833,1022.73,11111222 
WAVCIS,ioos:station:WAVCIS:CSI06:1,2013-02-03T23:00:00Z,28.8667,-90.4833,1022.46,11111222 
WAVCIS,ioos:station:WAVCIS:CSI06:1,2013-02-04T00:00:00Z,28.8667,-90.4833,1022.22,11111222 
WAVCIS,ioos:station:WAVCIS:CSI06:1,2013-02-04T01:00:00Z,28.8667,-90.4833,1022.32,11111222 
WAVCIS,ioos:station:WAVCIS:CSI06:1,2013-02-04T02:00:00Z,28.8667,-90.4833,1022.57,11111222 
WAVCIS,ioos:station:WAVCIS:CSI06:1,2013-02-04T03:00:00Z,28.8667,-90.4833,1022.21,11111222 
WAVCIS,ioos:station:WAVCIS:CSI06:1,2013-02-04T04:00:00Z,28.8667,-90.4833,1021.98,11111222 
WAVCIS,ioos:station:WAVCIS:CSI06:1,2013-02-04T05:00:00Z,28.8667,-90.4833,1021.79,11111222 
WAVCIS,ioos:station:WAVCIS:CSI06:1,2013-02-04T06:00:00Z,28.8667,-90.4833,1021.05,11111222 
WAVCIS,ioos:station:WAVCIS:CSI06:1,2013-02-04T07:00:00Z,28.8667,-90.4833,1020.19,11111222 
WAVCIS,ioos:station:WAVCIS:CSI06:1,2013-02-04T08:00:00Z,28.8667,-90.4833,1019.62,11111222 
WAVCIS,ioos:station:WAVCIS:CSI06:1,2013-02-04T09:00:00Z,28.8667,-90.4833,1018.99,11111222 
WAVCIS,ioos:station:WAVCIS:CSI06:1,2013-02-04T10:00:00Z,28.8667,-90.4833,1018.74,11111222 
WAVCIS,ioos:station:WAVCIS:CSI06:1,2013-02-04T11:00:00Z,28.8667,-90.4833,1018.7,11111222 
WAVCIS,ioos:station:WAVCIS:CSI06:1,2013-02-04T12:00:00Z,28.8667,-90.4833,1018.51,11111222 
WAVCIS,ioos:station:WAVCIS:CSI06:1,2013-02-04T13:00:00Z,28.8667,-90.4833,1018.58,11111222 
WAVCIS,ioos:station:WAVCIS:CSI06:1,2013-02-04T14:00:00Z,28.8667,-90.4833,1018.74,11111222 
WAVCIS,ioos:station:WAVCIS:CSI06:1,2013-02-04T15:00:00Z,28.8667,-90.4833,1018.83,11111222 
WAVCIS,ioos:station:WAVCIS:CSI06:1,2013-02-04T16:00:00Z,28.8667,-90.4833,1018.92,11111222 
WAVCIS,ioos:station:WAVCIS:CSI06:1,2013-02-04T17:00:00Z,28.8667,-90.4833,1018.45,11111222 
WAVCIS,ioos:station:WAVCIS:CSI06:1,2013-02-04T18:00:00Z,28.8667,-90.4833,1017.27,11111222 
WAVCIS,ioos:station:WAVCIS:CSI06:1,2013-02-04T19:00:00Z,28.8667,-90.4833,1016.62,11111222 
WAVCIS,ioos:station:WAVCIS:CSI06:1,2013-02-04T20:00:00Z,28.8667,-90.4833,1015.36,11111222 
WAVCIS,ioos:station:WAVCIS:CSI06:1,2013-02-04T21:00:00Z,28.8667,-90.4833,1014.63,11111222 
WAVCIS,ioos:station:WAVCIS:CSI06:1,2013-02-04T22:00:00Z,28.8667,-90.4833,1014.07,11111222 
WAVCIS,ioos:station:WAVCIS:CSI06:1,2013-02-04T23:00:00Z,28.8667,-90.4833,1013.98,11111222 
WAVCIS,ioos:station:WAVCIS:CSI06:1,2013-02-05T00:00:00Z,28.8667,-90.4833,1013.45,11111222 
WAVCIS,ioos:station:WAVCIS:CSI06:1,2013-02-05T01:00:00Z,28.8667,-90.4833,1013.39,11111222 
WAVCIS,ioos:station:WAVCIS:CSI06:1,2013-02-05T02:00:00Z,28.8667,-90.4833,1013.76,11111222 
WAVCIS,ioos:station:WAVCIS:CSI06:1,2013-02-05T03:00:00Z,28.8667,-90.4833,1013.24,11111222 
WAVCIS,ioos:station:WAVCIS:CSI06:1,2013-02-05T04:00:00Z,28.8667,-90.4833,1012.82,11111222 
WAVCIS,ioos:station:WAVCIS:CSI06:1,2013-02-05T05:00:00Z,28.8667,-90.4833,1011.53,11111222 
WAVCIS,ioos:station:WAVCIS:CSI06:1,2013-02-05T06:00:00Z,28.8667,-90.4833,1012.63,11111222 
WAVCIS,ioos:station:WAVCIS:CSI06:1,2013-02-05T07:00:00Z,28.8667,-90.4833,1013.14,11111222 
WAVCIS,ioos:station:WAVCIS:CSI06:1,2013-02-05T08:00:00Z,28.8667,-90.4833,1013.18,11111222 
WAVCIS,ioos:station:WAVCIS:CSI06:1,2013-02-05T09:00:00Z,28.8667,-90.4833,1012.96,11111222 
WAVCIS,ioos:station:WAVCIS:CSI06:1,2013-02-05T10:00:00Z,28.8667,-90.4833,1013.28,11111222 
WAVCIS,ioos:station:WAVCIS:CSI06:1,2013-02-05T11:00:00Z,28.8667,-90.4833,1012.82,11111222 
WAVCIS,ioos:station:WAVCIS:CSI06:1,2013-02-05T12:00:00Z,28.8667,-90.4833,1012.79,11111222 
WAVCIS,ioos:station:WAVCIS:CSI06:1,2013-02-05T13:00:00Z,28.8667,-90.4833,1012.48,11111222 
WAVCIS,ioos:station:WAVCIS:CSI06:1,2013-02-05T14:00:00Z,28.8667,-90.4833,1013.33,11111222 
WAVCIS,ioos:station:WAVCIS:CSI06:1,2013-02-05T15:00:00Z,28.8667,-90.4833,1013.64,11111222 
WAVCIS,ioos:station:WAVCIS:CSI06:1,2013-02-05T16:00:00Z,28.8667,-90.4833,1014.11,11111222 
WAVCIS,ioos:station:WAVCIS:CSI06:1,2013-02-05T17:00:00Z,28.8667,-90.4833,1015.19,11111222 
WAVCIS,ioos:station:WAVCIS:CSI06:1,2013-02-05T18:00:00Z,28.8667,-90.4833,1016.18,11111222 
WAVCIS,ioos:station:WAVCIS:CSI06:1,2013-02-05T19:00:00Z,28.8667,-90.4833,1015.7,11111222 
WAVCIS,ioos:station:WAVCIS:CSI06:1,2013-02-05T20:00:00Z,28.8667,-90.4833,1017.38,11111222 
WAVCIS,ioos:station:WAVCIS:CSI06:1,2013-02-05T21:00:00Z,28.8667,-90.4833,1015.03,11111222 
WAVCIS,ioos:station:WAVCIS:CSI06:1,2013-02-05T22:00:00Z,28.8667,-90.4833,1015.38,11111222 
WAVCIS,ioos:station:WAVCIS:CSI06:1,2013-02-05T23:00:00Z,28.8667,-90.4833,1015.45,11111222 
WAVCIS,ioos:station:WAVCIS:CSI06:1,2013-02-06T00:00:00Z,28.8667,-90.4833,1015.46,11111222 
WAVCIS,ioos:station:WAVCIS:CSI06:1,2013-02-06T01:00:00Z,28.8667,-90.4833,1015.92,11111222 
WAVCIS,ioos:station:WAVCIS:CSI06:1,2013-02-06T02:00:00Z,28.8667,-90.4833,1016.22,11111222 
WAVCIS,ioos:station:WAVCIS:CSI06:1,2013-02-06T03:00:00Z,28.8667,-90.4833,1017.15,11111222 
WAVCIS,ioos:station:WAVCIS:CSI06:1,2013-02-06T04:00:00Z,28.8667,-90.4833,1017.52,11111222 
WAVCIS,ioos:station:WAVCIS:CSI06:1,2013-02-06T05:00:00Z,28.8667,-90.4833,1017.49,11111222 
WAVCIS,ioos:station:WAVCIS:CSI06:1,2013-02-06T06:00:00Z,28.8667,-90.4833,1017.36,11111222 
WAVCIS,ioos:station:WAVCIS:CSI06:1,2013-02-06T07:00:00Z,28.8667,-90.4833,1017.35,11111222 
WAVCIS,ioos:station:WAVCIS:CSI06:1,2013-02-06T08:00:00Z,28.8667,-90.4833,1016.86,11111222 
WAVCIS,ioos:station:WAVCIS:CSI06:1,2013-02-06T09:00:00Z,28.8667,-90.4833,1016.93,11111222 
WAVCIS,ioos:station:WAVCIS:CSI06:1,2013-02-06T10:00:00Z,28.8667,-90.4833,1017.57,11111222 
WAVCIS,ioos:station:WAVCIS:CSI06:1,2013-02-06T11:00:00Z,28.8667,-90.4833,1017.44,11111222 
WAVCIS,ioos:station:WAVCIS:CSI06:1,2013-02-06T12:00:00Z,28.8667,-90.4833,1017.69,11111222 
WAVCIS,ioos:station:WAVCIS:CSI06:1,2013-02-06T13:00:00Z,28.8667,-90.4833,1018.67,11111222 
WAVCIS,ioos:station:WAVCIS:CSI06:1,2013-02-06T14:00:00Z,28.8667,-90.4833,1018.9,11111222 
WAVCIS,ioos:station:WAVCIS:CSI06:1,2013-02-06T15:00:00Z,28.8667,-90.4833,1018.88,11111222 
WAVCIS,ioos:station:WAVCIS:CSI06:1,2013-02-06T16:00:00Z,28.8667,-90.4833,1020.43,11111222 
WAVCIS,ioos:station:WAVCIS:CSI06:1,2013-02-06T17:00:00Z,28.8667,-90.4833,1019.11,11111222 
WAVCIS,ioos:station:WAVCIS:CSI06:1,2013-02-06T18:00:00Z,28.8667,-90.4833,1018.52,11111222 
WAVCIS,ioos:station:WAVCIS:CSI06:1,2013-02-06T19:00:00Z,28.8667,-90.4833,1017.66,11111222 
WAVCIS,ioos:station:WAVCIS:CSI06:1,2013-02-06T20:00:00Z,28.8667,-90.4833,1016.79,11111222 
WAVCIS,ioos:station:WAVCIS:CSI06:1,2013-02-06T21:00:00Z,28.8667,-90.4833,1016.01,11111222 
WAVCIS,ioos:station:WAVCIS:CSI06:1,2013-02-06T22:00:00Z,28.8667,-90.4833,1015.49,11111222 
WAVCIS,ioos:station:WAVCIS:CSI06:1,2013-02-06T23:00:00Z,28.8667,-90.4833,1015.64,11111222 
WAVCIS,ioos:station:WAVCIS:CSI06:1,2013-02-07T00:00:00Z,28.8667,-90.4833,1014.48,11111222 
WAVCIS,ioos:station:WAVCIS:CSI06:1,2013-02-07T01:00:00Z,28.8667,-90.4833,1013.9,11111222 
WAVCIS,ioos:station:WAVCIS:CSI06:1,2013-02-07T02:00:00Z,28.8667,-90.4833,1014.26,11111222 
WAVCIS,ioos:station:WAVCIS:CSI06:1,2013-02-07T03:00:00Z,28.8667,-90.4833,1014.0,11111222 
WAVCIS,ioos:station:WAVCIS:CSI06:1,2013-02-07T04:00:00Z,28.8667,-90.4833,1014.08,11111222 
WAVCIS,ioos:station:WAVCIS:CSI06:1,2013-02-07T05:00:00Z,28.8667,-90.4833,1012.45,11111222 
WAVCIS,ioos:station:WAVCIS:CSI06:1,2013-02-07T06:00:00Z,28.8667,-90.4833,1012.91,11111222 
WAVCIS,ioos:station:WAVCIS:CSI06:1,2013-02-07T07:00:00Z,28.8667,-90.4833,1010.99,11111222 
WAVCIS,ioos:station:WAVCIS:CSI06:1,2013-02-07T08:00:00Z,28.8667,-90.4833,1010.23,11111222 
WAVCIS,ioos:station:WAVCIS:CSI06:1,2013-02-07T09:00:00Z,28.8667,-90.4833,1010.39,11111222 
WAVCIS,ioos:station:WAVCIS:CSI06:1,2013-02-07T10:00:00Z,28.8667,-90.4833,1012.38,11111222 
WAVCIS,ioos:station:WAVCIS:CSI06:1,2013-02-07T11:00:00Z,28.8667,-90.4833,1012.7,11111222 
WAVCIS,ioos:station:WAVCIS:CSI06:1,2013-02-07T12:00:00Z,28.8667,-90.4833,1011.44,11111222 
WAVCIS,ioos:station:WAVCIS:CSI06:1,2013-02-07T13:00:00Z,28.8667,-90.4833,1012.14,11111222 
WAVCIS,ioos:station:WAVCIS:CSI06:1,2013-02-07T14:00:00Z,28.8667,-90.4833,1013.33,11111222 
WAVCIS,ioos:station:WAVCIS:CSI06:1,2013-02-07T15:00:00Z,28.8667,-90.4833,1013.84,11111222 
WAVCIS,ioos:station:WAVCIS:CSI06:1,2013-02-07T16:00:00Z,28.8667,-90.4833,1014.46,11111222 
WAVCIS,ioos:station:WAVCIS:CSI06:1,2013-02-07T17:00:00Z,28.8667,-90.4833,1014.84,11111222 
WAVCIS,ioos:station:WAVCIS:CSI06:1,2013-02-07T18:00:00Z,28.8667,-90.4833,1014.32,11111222 
WAVCIS,ioos:station:WAVCIS:CSI06:1,2013-02-07T19:00:00Z,28.8667,-90.4833,1013.75,11111222 
WAVCIS,ioos:station:WAVCIS:CSI06:1,2013-02-07T20:00:00Z,28.8667,-90.4833,1013.5,11111222 
WAVCIS,ioos:station:WAVCIS:CSI06:1,2013-02-07T21:00:00Z,28.8667,-90.4833,1013.42,11111222 
WAVCIS,ioos:station:WAVCIS:CSI06:1,2013-02-07T22:00:00Z,28.8667,-90.4833,1013.5,11111222 
WAVCIS,ioos:station:WAVCIS:CSI06:1,2013-02-07T23:00:00Z,28.8667,-90.4833,1013.85,11111222 
WAVCIS,ioos:station:WAVCIS:CSI06:1,2013-02-08T00:00:00Z,28.8667,-90.4833,1014.25,11111222 
WAVCIS,ioos:station:WAVCIS:CSI06:1,2013-02-08T01:00:00Z,28.8667,-90.4833,1014.53,11111222 
WAVCIS,ioos:station:WAVCIS:CSI06:1,2013-02-08T02:00:00Z,28.8667,-90.4833,1015.01,11111222 
WAVCIS,ioos:station:WAVCIS:CSI06:1,2013-02-08T03:00:00Z,28.8667,-90.4833,1015.07,11111222 
WAVCIS,ioos:station:WAVCIS:CSI06:1,2013-02-08T04:00:00Z,28.8667,-90.4833,1015.01,11111222 
WAVCIS,ioos:station:WAVCIS:CSI06:1,2013-02-08T05:00:00Z,28.8667,-90.4833,1015.27,11111222 
WAVCIS,ioos:station:WAVCIS:CSI06:1,2013-02-08T06:00:00Z,28.8667,-90.4833,1015.31,11111222 
WAVCIS,ioos:station:WAVCIS:CSI06:1,2013-02-08T07:00:00Z,28.8667,-90.4833,1015.36,11111222 
WAVCIS,ioos:station:WAVCIS:CSI06:1,2013-02-08T08:00:00Z,28.8667,-90.4833,1015.59,11111222 
WAVCIS,ioos:station:WAVCIS:CSI06:1,2013-02-08T09:00:00Z,28.8667,-90.4833,1015.85,11111222 
WAVCIS,ioos:station:WAVCIS:CSI06:1,2013-02-08T10:00:00Z,28.8667,-90.4833,1016.27,11111222 
WAVCIS,ioos:station:WAVCIS:CSI06:1,2013-02-08T11:00:00Z,28.8667,-90.4833,1016.83,11111222 
WAVCIS,ioos:station:WAVCIS:CSI06:1,2013-02-08T12:00:00Z,28.8667,-90.4833,1017.46,11111222 
WAVCIS,ioos:station:WAVCIS:CSI06:1,2013-02-08T13:00:00Z,28.8667,-90.4833,1018.03,11111222 
WAVCIS,ioos:station:WAVCIS:CSI06:1,2013-02-08T14:00:00Z,28.8667,-90.4833,1018.54,11111222 
WAVCIS,ioos:station:WAVCIS:CSI06:1,2013-02-08T15:00:00Z,28.8667,-90.4833,1019.23,11111222 
WAVCIS,ioos:station:WAVCIS:CSI06:1,2013-02-08T16:00:00Z,28.8667,-90.4833,1019.81,11111222 
WAVCIS,ioos:station:WAVCIS:CSI06:1,2013-02-08T17:00:00Z,28.8667,-90.4833,1020.18,11111222 
WAVCIS,ioos:station:WAVCIS:CSI06:1,2013-02-08T18:00:00Z,28.8667,-90.4833,1019.68,11111222 
WAVCIS,ioos:station:WAVCIS:CSI06:1,2013-02-08T19:00:00Z,28.8667,-90.4833,1019.09,11111222 
WAVCIS,ioos:station:WAVCIS:CSI06:1,2013-02-08T20:00:00Z,28.8667,-90.4833,1018.58,11111222 
WAVCIS,ioos:station:WAVCIS:CSI06:1,2013-02-08T21:00:00Z,28.8667,-90.4833,1018.32,11111222 
WAVCIS,ioos:station:WAVCIS:CSI06:1,2013-02-08T22:00:00Z,28.8667,-90.4833,1018.56,11111222 
WAVCIS,ioos:station:WAVCIS:CSI06:1,2013-02-08T23:00:00Z,28.8667,-90.4833,1018.68,11111222 
WAVCIS,ioos:station:WAVCIS:CSI06:1,2013-02-09T00:00:00Z,28.8667,-90.4833,1019.1,11111222 
WAVCIS,ioos:station:WAVCIS:CSI06:1,2013-02-09T01:00:00Z,28.8667,-90.4833,1019.51,11111222 
WAVCIS,ioos:station:WAVCIS:CSI06:1,2013-02-09T02:00:00Z,28.8667,-90.4833,1020.0,11111222 
WAVCIS,ioos:station:WAVCIS:CSI06:1,2013-02-09T03:00:00Z,28.8667,-90.4833,1020.59,11111222 
WAVCIS,ioos:station:WAVCIS:CSI06:1,2013-02-09T04:00:00Z,28.8667,-90.4833,1020.63,11111222 
WAVCIS,ioos:station:WAVCIS:CSI06:1,2013-02-09T05:00:00Z,28.8667,-90.4833,1020.72,11111222 
WAVCIS,ioos:station:WAVCIS:CSI06:1,2013-02-09T06:00:00Z,28.8667,-90.4833,1020.54,11111222 
WAVCIS,ioos:station:WAVCIS:CSI06:1,2013-02-09T07:00:00Z,28.8667,-90.4833,1020.24,11111222 
WAVCIS,ioos:station:WAVCIS:CSI06:1,2013-02-09T08:00:00Z,28.8667,-90.4833,1020.25,11111222 
WAVCIS,ioos:station:WAVCIS:CSI06:1,2013-02-09T09:00:00Z,28.8667,-90.4833,1020.2,11111222 
WAVCIS,ioos:station:WAVCIS:CSI06:1,2013-02-09T10:00:00Z,28.8667,-90.4833,1020.44,11111222 
WAVCIS,ioos:station:WAVCIS:CSI06:1,2013-02-09T11:00:00Z,28.8667,-90.4833,1020.57,11111222 
WAVCIS,ioos:station:WAVCIS:CSI06:1,2013-02-09T12:00:00Z,28.8667,-90.4833,1021.01,11111222 
WAVCIS,ioos:station:WAVCIS:CSI06:1,2013-02-09T13:00:00Z,28.8667,-90.4833,1021.53,11111222 
WAVCIS,ioos:station:WAVCIS:CSI06:1,2013-02-09T14:00:00Z,28.8667,-90.4833,1021.45,11111222 
WAVCIS,ioos:station:WAVCIS:CSI06:1,2013-02-09T15:00:00Z,28.8667,-90.4833,1021.69,11111222 
WAVCIS,ioos:station:WAVCIS:CSI06:1,2013-02-09T16:00:00Z,28.8667,-90.4833,1022.25,11111222 
WAVCIS,ioos:station:WAVCIS:CSI06:1,2013-02-09T17:00:00Z,28.8667,-90.4833,1022.12,11111222 
WAVCIS,ioos:station:WAVCIS:CSI06:1,2013-02-09T18:00:00Z,28.8667,-90.4833,1021.32,11111222 
WAVCIS,ioos:station:WAVCIS:CSI06:1,2013-02-09T19:00:00Z,28.8667,-90.4833,1020.23,11111222 
WAVCIS,ioos:station:WAVCIS:CSI06:1,2013-02-09T20:00:00Z,28.8667,-90.4833,1019.34,11111222 
WAVCIS,ioos:station:WAVCIS:CSI06:1,2013-02-09T21:00:00Z,28.8667,-90.4833,1018.85,11111222 
WAVCIS,ioos:station:WAVCIS:CSI06:1,2013-02-09T22:00:00Z,28.8667,-90.4833,1018.53,11111222 
WAVCIS,ioos:station:WAVCIS:CSI06:1,2013-02-09T23:00:00Z,28.8667,-90.4833,1018.36,11111222 
WAVCIS,ioos:station:WAVCIS:CSI06:1,2013-02-10T00:00:00Z,28.8667,-90.4833,1018.11,11111222 
WAVCIS,ioos:station:WAVCIS:CSI06:1,2013-02-10T01:00:00Z,28.8667,-90.4833,1018.08,11111222 
WAVCIS,ioos:station:WAVCIS:CSI06:1,2013-02-10T02:00:00Z,28.8667,-90.4833,1018.08,11111222 
WAVCIS,ioos:station:WAVCIS:CSI06:1,2013-02-10T03:00:00Z,28.8667,-90.4833,1017.68,11111222 
WAVCIS,ioos:station:WAVCIS:CSI06:1,2013-02-10T04:00:00Z,28.8667,-90.4833,1017.47,11111222 
WAVCIS,ioos:station:WAVCIS:CSI06:1,2013-02-10T05:00:00Z,28.8667,-90.4833,1016.89,11111222 
WAVCIS,ioos:station:WAVCIS:CSI06:1,2013-02-10T06:00:00Z,28.8667,-90.4833,1016.61,11111222 
WAVCIS,ioos:station:WAVCIS:CSI06:1,2013-02-10T07:00:00Z,28.8667,-90.4833,1016.37,11111222 
WAVCIS,ioos:station:WAVCIS:CSI06:1,2013-02-10T08:00:00Z,28.8667,-90.4833,1015.8,11111222 
WAVCIS,ioos:station:WAVCIS:CSI06:1,2013-02-10T09:00:00Z,28.8667,-90.4833,1015.65,11111222 
WAVCIS,ioos:station:WAVCIS:CSI06:1,2013-02-10T10:00:00Z,28.8667,-90.4833,1015.05,11111222 
WAVCIS,ioos:station:WAVCIS:CSI06:1,2013-02-10T11:00:00Z,28.8667,-90.4833,1015.02,11111222 
WAVCIS,ioos:station:WAVCIS:CSI06:1,2013-02-10T12:00:00Z,28.8667,-90.4833,1015.27,11111222 
WAVCIS,ioos:station:WAVCIS:CSI06:1,2013-02-10T13:00:00Z,28.8667,-90.4833,1015.94,11111222 
WAVCIS,ioos:station:WAVCIS:CSI06:1,2013-02-10T14:00:00Z,28.8667,-90.4833,1017.1,11111222 
WAVCIS,ioos:station:WAVCIS:CSI06:1,2013-02-10T15:00:00Z,28.8667,-90.4833,1017.56,11111222 
WAVCIS,ioos:station:WAVCIS:CSI06:1,2013-02-10T16:00:00Z,28.8667,-90.4833,1017.06,11111222 
WAVCIS,ioos:station:WAVCIS:CSI06:1,2013-02-10T17:00:00Z,28.8667,-90.4833,1015.76,11111222 
WAVCIS,ioos:station:WAVCIS:CSI06:1,2013-02-10T18:00:00Z,28.8667,-90.4833,1015.16,11111222 
WAVCIS,ioos:station:WAVCIS:CSI06:1,2013-02-10T19:00:00Z,28.8667,-90.4833,1014.41,11111222 
WAVCIS,ioos:station:WAVCIS:CSI06:1,2013-02-10T20:00:00Z,28.8667,-90.4833,1013.97,11111222 
WAVCIS,ioos:station:WAVCIS:CSI06:1,2013-02-10T21:00:00Z,28.8667,-90.4833,1014.29,11111222 
WAVCIS,ioos:station:WAVCIS:CSI06:1,2013-02-10T22:00:00Z,28.8667,-90.4833,1015.13,11111222 
WAVCIS,ioos:station:WAVCIS:CSI06:1,2013-02-10T23:00:00Z,28.8667,-90.4833,1015.44,11111222 
WAVCIS,ioos:station:WAVCIS:CSI06:1,2013-02-11T00:00:00Z,28.8667,-90.4833,1015.27,11111222 
WAVCIS,ioos:station:WAVCIS:CSI06:1,2013-02-11T01:00:00Z,28.8667,-90.4833,1015.64,11111222 
WAVCIS,ioos:station:WAVCIS:CSI06:1,2013-02-11T02:00:00Z,28.8667,-90.4833,1016.08,11111222 
WAVCIS,ioos:station:WAVCIS:CSI06:1,2013-02-11T03:00:00Z,28.8667,-90.4833,1016.82,11111222 
WAVCIS,ioos:station:WAVCIS:CSI06:1,2013-02-11T04:00:00Z,28.8667,-90.4833,1017.06,11111222 
WAVCIS,ioos:station:WAVCIS:CSI06:1,2013-02-11T05:00:00Z,28.8667,-90.4833,1017.07,11111222 
WAVCIS,ioos:station:WAVCIS:CSI06:1,2013-02-11T06:00:00Z,28.8667,-90.4833,1016.71,11111222 
WAVCIS,ioos:station:WAVCIS:CSI06:1,2013-02-11T07:00:00Z,28.8667,-90.4833,1016.67,11111222 
WAVCIS,ioos:station:WAVCIS:CSI06:1,2013-02-11T08:00:00Z,28.8667,-90.4833,1016.3,11111222 
WAVCIS,ioos:station:WAVCIS:CSI06:1,2013-02-11T09:00:00Z,28.8667,-90.4833,1016.06,11111222 
WAVCIS,ioos:station:WAVCIS:CSI06:1,2013-02-11T10:00:00Z,28.8667,-90.4833,1016.1,11111222 
WAVCIS,ioos:station:WAVCIS:CSI06:1,2013-02-11T11:00:00Z,28.8667,-90.4833,1016.41,11111222 
WAVCIS,ioos:station:WAVCIS:CSI06:1,2013-02-11T12:00:00Z,28.8667,-90.4833,1016.59,11111222 
WAVCIS,ioos:station:WAVCIS:CSI06:1,2013-02-11T13:00:00Z,28.8667,-90.4833,1016.99,11111222 
WAVCIS,ioos:station:WAVCIS:CSI06:1,2013-02-11T14:00:00Z,28.8667,-90.4833,1017.59,11111222 
WAVCIS,ioos:station:WAVCIS:CSI06:1,2013-02-11T15:00:00Z,28.8667,-90.4833,1018.14,11111222 
WAVCIS,ioos:station:WAVCIS:CSI06:1,2013-02-11T16:00:00Z,28.8667,-90.4833,1018.32,11111222 
WAVCIS,ioos:station:WAVCIS:CSI06:1,2013-02-11T17:00:00Z,28.8667,-90.4833,1018.04,11111222 
WAVCIS,ioos:station:WAVCIS:CSI06:1,2013-02-11T18:00:00Z,28.8667,-90.4833,1017.81,11111222 
WAVCIS,ioos:station:WAVCIS:CSI06:1,2013-02-11T19:00:00Z,28.8667,-90.4833,1016.85,11111222 
WAVCIS,ioos:station:WAVCIS:CSI06:1,2013-02-11T20:00:00Z,28.8667,-90.4833,1016.0,11111222 
WAVCIS,ioos:station:WAVCIS:CSI06:1,2013-02-11T21:00:00Z,28.8667,-90.4833,1016.07,11111222 
WAVCIS,ioos:station:WAVCIS:CSI06:1,2013-02-11T22:00:00Z,28.8667,-90.4833,1015.8,11111222 